Total_Precipitation_Accumulation
0.00 0.00 0.00 0.00 0.00 0.00 0.00 0.00 0.00 0.00 0.00 0.00 0.00 0.00 0.00 0.01 0.01 0.01 0.01 0.00 0.00 0.02 0.05 0.05 0.06 0.06 0.07 0.09 0.12 0.18 0.29 0.41 0.61 0.58 0.47 0.44 0.39 0.31 0.25 0.19 0.16 0.15 0.14 0.17
0.00 0.00 0.00 0.00 0.00 0.00 0.00 0.00 0.00 0.00 0.00 0.00 0.00 0.00 0.01 0.02 0.04 0.05 0.05 0.03 0.02 0.06 0.07 0.09 0.13 0.13 0.12 0.18 0.26 0.39 0.58 0.86 0.94 0.81 0.77 0.78 0.74 0.67 0.62 0.46 0.31 0.23 0.21 0.24
0.00 0.00 0.00 0.00 0.00 0.00 0.00 0.00 0.00 0.00 0.00 0.00 0.00 0.00 0.01 0.05 0.08 0.11 0.10 0.07 0.06 0.08 0.08 0.09 0.11 0.14 0.17 0.24 0.33 0.53 0.80 1.04 1.11 1.07 1.04 1.01 0.99 0.94 0.81 0.60 0.43 0.34 0.31 0.31
0.00 0.00 0.00 0.00 0.00 0.00 0.00 0.00 0.00 0.00 0.00 0.00 0.00 0.00 0.00 0.02 0.04 0.06 0.08 0.07 0.05 0.06 0.06 0.05 0.06 0.06 0.09 0.15 0.31 0.53 0.73 0.89 0.98 1.00 0.92 0.91 0.94 0.93 0.78 0.59 0.47 0.39 0.35 0.37
0.00 0.00 0.00 0.00 0.00 0.00 0.00 0.00 0.00 0.00 0.00 0.00 0.00 0.00 0.00 0.00 0.00 0.01 0.02 0.05 0.08 0.09 0.10 0.12 0.16 0.22 0.26 0.34 0.45 0.53 0.61 0.70 0.79 0.78 0.76 0.77 0.76 0.72 0.65 0.50 0.40 0.35 0.34 0.37
0.00 0.01 0.01 0.00 0.00 0.00 0.00 0.00 0.00 0.00 0.00 0.00 0.00 0.00 0.00 0.00 0.00 0.00 0.01 0.04 0.09 0.14 0.20 0.26 0.30 0.36 0.40 0.48 0.59 0.70 0.74 0.88 1.00 0.93 0.81 0.78 0.77 0.73 0.64 0.52 0.42 0.33 0.29 0.29
0.00 0.00 0.00 0.00 0.01 0.01 0.00 0.01 0.02 0.00 0.00 0.00 0.00 0.00 0.00 0.00 0.00 0.00 0.01 0.01 0.03 0.08 0.16 0.24 0.36 0.53 0.57 0.52 0.56 0.77 1.02 1.24 1.26 1.11 0.92 0.82 0.77 0.74 0.69 0.60 0.50 0.41 0.35 0.31
0.00 0.00 0.01 0.02 0.03 0.04 0.03 0.05 0.07 0.03 0.01 0.01 0.00 0.00 0.00 0.00 0.00 0.00 0.00 0.00 0.01 0.02 0.03 0.05 0.08 0.17 0.19 0.14 0.12 0.19 0.31 0.45 0.49 0.47 0.44 0.46 0.46 0.49 0.53 0.54 0.51 0.46 0.40 0.35
0.00 0.00 0.01 0.04 0.08 0.08 0.12 0.12 0.08 0.10 0.06 0.04 0.02 0.01 0.00 0.00 0.01 0.01 0.00 0.00 0.00 0.00 0.01 0.01 0.01 0.03 0.04 0.04 0.06 0.11 0.16 0.20 0.21 0.17 0.13 0.14 0.17 0.22 0.27 0.31 0.35 0.36 0.34 0.29
0.00 0.00 0.00 0.02 0.05 0.07 0.07 0.11 0.17 0.22 0.20 0.12 0.06 0.05 0.04 0.02 0.02 0.02 0.01 0.00 0.00 0.00 0.00 0.01 0.02 0.05 0.09 0.14 0.16 0.16 0.15 0.12 0.08 0.06 0.06 0.06 0.07 0.09 0.12 0.14 0.15 0.17 0.18 0.18
0.00 0.01 0.02 0.08 0.10 0.09 0.07 0.09 0.14 0.18 0.19 0.16 0.10 0.07 0.04 0.04 0.03 0.01 0.01 0.01 0.00 0.01 0.01 0.01 0.01 0.05 0.09 0.12 0.11 0.10 0.08 0.04 0.02 0.01 0.01 0.01 0.02 0.04 0.05 0.06 0.06 0.06 0.05 0.05
0.01 0.02 0.03 0.05 0.04 0.02 0.04 0.08 0.12 0.18 0.19 0.18 0.15 0.11 0.05 0.03 0.02 0.02 0.01 0.00 0.00 0.00 0.01 0.01 0.01 0.01 0.02 0.04 0.05 0.04 0.03 0.01 0.00 0.00 0.00 0.00 0.00 0.00 0.00 0.00 0.01 0.01 0.01 0.01
0.01 0.02 0.02 0.01 0.02 0.02 0.05 0.05 0.10 0.14 0.18 0.19 0.19 0.16 0.09 0.08 0.05 0.03 0.01 0.01 0.00 0.00 0.00 0.00 0.00 0.00 0.00 0.02 0.05 0.05 0.03 0.02 0.01 0.00 0.00 0.00 0.00 0.00 0.00 0.00 0.00 0.00 0.00 0.00
0.00 0.00 0.01 0.01 0.01 0.01 0.02 0.03 0.06 0.11 0.13 0.10 0.08 0.09 0.08 0.09 0.08 0.06 0.03 0.01 0.01 0.00 0.00 0.00 0.00 0.00 0.00 0.00 0.01 0.02 0.02 0.01 0.01 0.00 0.00 0.00 0.00 0.00 0.00 0.00 0.00 0.00 0.00 0.00
0.00 0.00 0.01 0.01 0.01 0.02 0.02 0.03 0.05 0.08 0.07 0.06 0.06 0.09 0.11 0.10 0.09 0.08 0.07 0.05 0.02 0.01 0.00 0.00 0.00 0.00 0.00 0.00 0.01 0.02 0.01 0.01 0.01 0.00 0.00 0.00 0.00 0.00 0.00 0.00 0.00 0.00 0.00 0.00
0.00 0.00 0.01 0.05 0.09 0.09 0.08 0.07 0.07 0.09 0.08 0.08 0.08 0.07 0.04 0.05 0.07 0.09 0.09 0.07 0.05 0.01 0.00 0.00 0.00 0.00 0.00 0.00 0.01 0.03 0.02 0.02 0.01 0.01 0.01 0.00 0.00 0.00 0.01 0.01 0.00 0.00 0.00 0.00
0.00 0.00 0.01 0.05 0.15 0.14 0.11 0.07 0.10 0.11 0.11 0.15 0.19 0.17 0.11 0.10 0.09 0.07 0.06 0.06 0.04 0.02 0.00 0.00 0.00 0.00 0.00 0.00 0.01 0.03 0.03 0.02 0.01 0.02 0.01 0.01 0.01 0.02 0.02 0.02 0.01 0.01 0.00 0.00
0.00 0.00 0.02 0.06 0.13 0.11 0.06 0.02 0.03 0.05 0.05 0.06 0.09 0.09 0.09 0.09 0.08 0.05 0.03 0.02 0.01 0.01 0.00 0.00 0.00 0.00 0.00 0.00 0.01 0.02 0.02 0.02 0.02 0.03 0.04 0.04 0.04 0.07 0.08 0.06 0.02 0.01 0.01 0.00
0.00 0.00 0.01 0.04 0.05 0.05 0.02 0.01 0.01 0.03 0.02 0.01 0.01 0.01 0.01 0.01 0.01 0.01 0.00 0.00 0.00 0.00 0.00 0.00 0.00 0.01 0.01 0.01 0.02 0.02 0.03 0.04 0.04 0.04 0.06 0.06 0.06 0.08 0.10 0.10 0.07 0.06 0.05 0.03
0.00 0.00 0.01 0.02 0.03 0.03 0.01 0.00 0.00 0.01 0.01 0.00 0.00 0.00 0.00 0.00 0.00 0.00 0.00 0.00 0.00 0.00 0.00 0.01 0.00 0.02 0.02 0.02 0.02 0.04 0.04 0.05 0.05 0.05 0.05 0.04 0.04 0.05 0.07 0.08 0.08 0.07 0.06 0.04
0.00 0.00 0.00 0.01 0.00 0.00 0.00 0.00 0.00 0.02 0.02 0.00 0.00 0.00 0.00 0.00 0.00 0.00 0.00 0.00 0.00 0.00 0.00 0.00 0.01 0.04 0.07 0.03 0.03 0.04 0.03 0.05 0.07 0.10 0.08 0.06 0.03 0.03 0.04 0.05 0.04 0.04 0.05 0.04
0.00 0.00 0.00 0.00 0.00 0.00 0.00 0.00 0.00 0.00 0.00 0.00 0.00 0.00 0.00 0.00 0.00 0.00 0.00 0.00 0.00 0.00 0.00 0.00 0.01 0.04 0.08 0.08 0.07 0.06 0.06 0.08 0.11 0.13 0.10 0.07 0.06 0.03 0.03 0.05 0.04 0.04 0.04 0.03
0.00 0.00 0.00 0.00 0.00 0.00 0.00 0.00 0.00 0.00 0.00 0.00 0.00 0.00 0.00 0.00 0.00 0.00 0.00 0.00 0.00 0.00 0.00 0.01 0.02 0.03 0.05 0.08 0.13 0.14 0.14 0.13 0.14 0.15 0.12 0.10 0.08 0.06 0.05 0.04 0.04 0.04 0.03 0.03
0.00 0.00 0.00 0.00 0.00 0.00 0.00 0.00 0.00 0.00 0.00 0.00 0.00 0.00 0.00 0.00 0.00 0.00 0.00 0.00 0.00 0.00 0.00 0.01 0.02 0.03 0.04 0.05 0.09 0.12 0.17 0.15 0.13 0.14 0.14 0.15 0.15 0.13 0.11 0.09 0.07 0.05 0.04 0.03
0.00 0.00 0.00 0.00 0.00 0.00 0.00 0.00 0.00 0.00 0.00 0.00 0.00 0.00 0.00 0.00 0.00 0.00 0.00 0.00 0.00 0.00 0.00 0.00 0.01 0.02 0.02 0.03 0.05 0.07 0.09 0.09 0.09 0.09 0.09 0.11 0.15 0.18 0.17 0.15 0.12 0.08 0.07 0.05
0.00 0.00 0.00 0.00 0.00 0.00 0.00 0.00 0.00 0.00 0.00 0.00 0.00 0.00 0.00 0.00 0.00 0.00 0.00 0.00 0.00 0.00 0.00 0.00 0.00 0.00 0.01 0.01 0.03 0.04 0.06 0.06 0.06 0.06 0.06 0.06 0.08 0.09 0.11 0.10 0.07 0.04 0.03 0.02